INTELSAT 16 (IS-16)

Last updated on Sat Aug 15 2026 00:02:58 GMT+0000 (Coordinated Universal Time)

1 36397U 10006A 26226.55288934 -.00000260 00000+0 00000+0 0 9994 2 36397 0.0134 75.3748 0002019 74.3540 296.0729 1.00272139 60238
UTC large
Height (km)
Speed (km/s)
/
Latitude / Longitude
Inclination (degrees)
Orbital Period (minutes)
Azimuth
Elevation
Range (km)
Doppler Factor

Next 0 passes for location: London (51.5072 / 0.1276)

No passes found over London.
INTELSAT 16 (IS-16)